Location: ČR
(50.0000°N, 15.0000°E)
Time: 09:17:05
(UTC+00:00)

A-11 Canister half - Visible Passes

Search period start: 21 October 2021 00:00
Search period end: 31 October 2021 00:00
Orbit: 1515 x 1684 km, 47.2° (Epoch: 20 October)

Date Brightness Start Highest point End Pass type
(mag) Time Alt. Az. Time Alt. Az. Time Alt. Az.
21 Oct 9.3 17:53:49 10° SW 18:03:20 50° SSE 18:07:35 32° E visible
21 Oct 9.2 19:57:46 10° WSW 20:05:47 61° SW 20:05:47 61° SW visible
21 Oct 10.9 22:02:42 10° W 22:03:59 15° W 22:03:59 15° W visible
22 Oct 9.4 17:30:59 10° SW 17:40:26 48° SSE 17:45:57 25° E visible
22 Oct 9.0 19:34:50 10° WSW 19:44:09 72° SSW 19:44:09 72° SSW visible
22 Oct 10.7 21:39:45 10° W 21:42:20 21° W 21:42:20 21° W visible
23 Oct 9.5 17:08:10 10° SW 17:17:34 46° SSE 17:24:16 20° E visible
23 Oct 8.9 19:11:53 10° WSW 19:21:53 74° S 19:22:28 72° SE visible
23 Oct 10.4 21:16:47 10° W 21:20:39 27° W 21:20:39 27° W visible
24 Oct 9.6 16:45:21 10° SSW 16:54:41 44° SE 17:02:33 15° E visible
24 Oct 8.9 18:48:57 10° WSW 18:58:57 73° S 19:00:44 61° ESE visible
24 Oct 10.1 20:53:50 10° W 20:58:55 35° W 20:58:55 35° W visible
25 Oct 9.7 16:22:34 10° SSW 16:31:48 43° SE 16:40:48 10° ENE visible
25 Oct 9.0 18:26:01 10° WSW 18:36:02 72° SSE 18:38:59 50° ESE visible
25 Oct 9.7 20:30:53 10° W 20:37:11 44° W 20:37:11 44° W visible
26 Oct 9.1 18:03:05 10° WSW 18:13:07 71° SSE 18:17:14 40° E visible
26 Oct 9.4 20:07:55 10° W 20:15:26 55° WSW 20:15:26 55° WSW visible
26 Oct 11.1 22:12:58 10° WNW 22:13:36 12° W 22:13:36 12° W visible
27 Oct 9.1 17:40:10 10° WSW 17:50:11 70° SSE 17:55:28 32° E visible
27 Oct 9.1 19:44:58 10° W 19:53:39 67° WSW 19:53:39 67° WSW visible
27 Oct 10.9 21:50:01 10° WNW 21:51:50 17° W 21:51:50 17° W visible
28 Oct 9.2 17:17:14 10° WSW 17:27:15 69° SSE 17:33:41 25° E visible
28 Oct 8.9 19:22:00 10° W 19:31:52 75° SSW 19:31:52 75° SSW visible
28 Oct 10.6 21:27:02 10° WNW 21:30:03 22° W 21:30:03 22° W visible
29 Oct 9.2 16:54:19 10° WSW 17:04:20 67° SSE 17:11:55 19° E visible
29 Oct 8.9 18:59:03 10° W 19:09:06 76° S 19:10:06 71° SE visible
29 Oct 10.4 21:04:04 10° WNW 21:08:17 28° W 21:08:17 28° W visible
30 Oct 9.3 16:31:25 10° WSW 16:41:25 66° SSE 16:50:08 14° E visible
30 Oct 9.0 18:36:06 10° W 18:46:10 76° S 18:48:19 59° ESE visible
30 Oct 10.1 20:41:07 10° W 20:46:30 34° W 20:46:30 34° W visible
